Location: Rounton
(54.4000°N, 1.3500°W)
Time: 23:35:52
(UTC+01:00)

Vanguard 1 - Pass Details

Date: 01 March 2024
Orbit: 653 x 3825 km, 34.2° (Epoch: 21 April)

Event Time Altitude Azimuth Distance (km) Brightness Sun altitude
Rises 16:28:57 0° 176° (S) 4,580 13.8 9.3°
Reaches altitude 10° 16:34:56 10° 146° (SSE) 4,320 13.3 8.5°
Maximum altitude 16:38:25 12° 129° (SE) 4,580 13.2 8.1°
Drops below altitude 10° 16:42:26 10° 112° (ESE) 5,149 13.4 7.5°
Sets 16:52:03 0° 88° (E) 7,039 13.8 6.2°
